Location: ActonStarParty
(42.4766°N, 71.4538°W)
Time: 14:37:47
(UTC-04:00)

Amateur Radio Satellites - All Passes

Search period start: 28 June 2016 14:07
Search period end: 29 June 2016 14:07
Location: ActonStarParty, 42.4766°N, 71.4538°W

Satellite Date Start Highest point End Downlink Frequencies (MHz)
Time Altitude Azimuth
TISAT 1 28 Jun 14:15:59 14:20:11 72° 286° (WNW) 14:24:22 437.305
Cosmos 2504 28 Jun 14:28:10 14:36:16 87° 97° (E) 14:45:01 435.465 / 435.565
UKube-1 28 Jun 14:30:53 14:32:19 12° 300° (WNW) 14:33:46 .
SPROUT 28 Jun 14:32:06 14:34:25 14° 297° (WNW) 14:36:43 437.525
SWISSCUBE 28 Jun 14:36:06 14:40:33 37° 98° (E) 14:44:57 437.505
AO-7 28 Jun 14:44:17 14:52:13 51° 63° (ENE) 15:00:13 29.400- 29.500
BEESAT 28 Jun 15:01:12 15:05:58 60° 101° (E) 15:10:41 436.000
ITUPSAT 1 28 Jun 15:02:07 15:06:54 60° 101° (ESE) 15:11:37 437.325
ISS 28 Jun 15:03:19 15:06:36 80° 36° (NE) 15:09:51 145.825
YUBILEINY 28 Jun 15:11:52 15:18:02 21° 298° (WNW) 15:24:15 435.215
AIST 2 28 Jun 15:18:33 15:20:55 15° 250° (WSW) 15:23:16 435.215
Gurwin Techsat 1B 28 Jun 15:31:55 15:34:52 15° 270° (W) 15:37:50 435.225
ITAMSAT 1 28 Jun 15:36:15 15:40:56 33° 263° (W) 15:45:39 435.822/435.867
MOZHAYETS 4 28 Jun 15:42:46 15:46:02 19° 92° (E) 15:49:18
KKS-1 28 Jun 15:53:20 15:57:01 25° 95° (E) 16:00:40 437.445
SO-50 28 Jun 15:56:34 16:01:24 63° 120° (ESE) 16:06:13 436.795
AIST 1 28 Jun 16:02:18 16:03:56 12° 84° (E) 16:05:34
SWISSCUBE 28 Jun 16:14:15 16:18:09 25° 295° (WNW) 16:22:02 437.505
RS-15 28 Jun 16:15:43 16:25:08 25° 352° (N) 16:34:48 29.354- 29.394
HORYU 2 28 Jun 16:16:58 16:21:07 41° 71° (ENE) 16:25:19 437.375
Cosmos 2504 28 Jun 16:24:59 16:30:56 21° 299° (WNW) 16:37:09 435.465 / 435.565
STARS 28 Jun 16:25:46 16:29:33 28° 96° (E) 16:33:19 437.465
BRITE-PL 28 Jun 16:36:10 16:38:35 14° 63° (ENE) 16:40:56 437.365/2234.400
AO-7 28 Jun 16:37:35 16:45:10 38° 262° (W) 16:52:49 29.400- 29.500
CUTE-I 28 Jun 16:38:35 16:41:07 14° 58° (ENE) 16:43:38 437.470
BEESAT 28 Jun 16:40:16 16:43:16 17° 298° (WNW) 16:46:15 436.000
ISS 28 Jun 16:41:08 16:42:36 12° 230° (SW) 16:44:03 145.825
ITUPSAT 1 28 Jun 16:41:13 16:44:14 17° 298° (WNW) 16:47:15 437.325
NOAA 15 28 Jun 17:04:44 17:09:17 30° 66° (ENE) 17:13:52 137.62
CUBESAT XI-V 28 Jun 17:10:04 17:13:16 18° 92° (E) 17:16:25 437.345
GOMX 1 28 Jun 17:10:55 17:12:44 12° 63° (ENE) 17:14:31 467.674
GONETS M04 28 Jun 17:15:26 17:21:50 24° 80° (E) 17:28:13
Cosmos 2499 28 Jun 17:16:56 17:21:08 15° 74° (ENE) 17:25:24 435.465 / 435.565
MOZHAYETS 4 28 Jun 17:19:00 17:23:26 45° 289° (WNW) 17:27:49
KKS-1 28 Jun 17:29:38 17:33:35 32° 291° (WNW) 17:37:31 437.445
LilacSat-2 28 Jun 17:32:27 17:35:39 26° 69° (ENE) 17:38:52 437.200
NOAA 18 28 Jun 17:34:44 17:39:55 46° 69° (ENE) 17:45:09 137.9125
AIST 1 28 Jun 17:36:44 17:40:59 58° 280° (W) 17:45:14
SO-50 28 Jun 17:38:29 17:42:18 22° 319° (NW) 17:46:05 436.795
Cubesat XI-IV 28 Jun 17:40:59 17:46:03 45° 69° (ENE) 17:51:09 437.490
HORYU 2 28 Jun 17:54:44 17:57:51 19° 267° (W) 18:01:00 437.375
STARS 28 Jun 18:02:05 18:05:51 28° 292° (WNW) 18:09:37 437.465
HO-68 28 Jun 18:09:13 18:13:49 19° 53° (NE) 18:18:25 435.675
DOVE 4 28 Jun 18:09:49 18:13:04 21° 67° (ENE) 18:16:15 437.250
BRITE-PL 28 Jun 18:11:32 18:16:36 73° 258° (WSW) 18:21:18 437.365/2234.400
CUTE-I 28 Jun 18:15:01 18:20:22 90° 252° (WSW) 18:25:47 437.470
RS-15 28 Jun 18:32:09 18:42:51 33° 27° (NNE) 18:53:37 29.354- 29.394
CUSAT 1 28 Jun 18:37:49 18:41:35 77° 80° (E) 18:44:33 437.405
NOAA 15 28 Jun 18:44:07 18:48:57 36° 263° (W) 18:53:49 137.62
CUTE 1.7 + AOD 2 28 Jun 18:44:41 18:46:48 14° 63° (ENE) 18:48:55 437.475
GOMX 1 28 Jun 18:45:44 18:50:22 70° 259° (W) 18:54:43 467.674
CUBESAT XI-V 28 Jun 18:46:27 18:50:52 45° 288° (WNW) 18:55:15 437.345
SEEDS 28 Jun 18:49:49 18:50:54 11° 61° (ENE) 18:52:00 437.485
DANDE 28 Jun 18:59:50 19:04:50 51° 74° (ENE) 19:08:32 436.750
Cosmos 2499 28 Jun 19:04:19 19:12:34 76° 94° (E) 19:21:24 435.465 / 435.565
CINEMA 3 28 Jun 19:05:23 19:08:42 24° 67° (ENE) 19:12:02 145.822/145.860
LilacSat-2 28 Jun 19:06:59 19:09:56 21° 266° (W) 19:12:54 437.200
GONETS M04 28 Jun 19:09:01 19:17:43 74° 280° (W) 19:26:27
NOAA 18 28 Jun 19:16:22 19:20:46 25° 266° (W) 19:25:12 137.9125
Cubesat XI-IV 28 Jun 19:22:02 19:26:18 24° 266° (W) 19:30:36 437.490
AAUSAT CUBESAT 2 28 Jun 19:27:21 19:29:51 16° 64° (ENE) 19:32:22 437.432
DOVE 4 28 Jun 19:46:42 19:50:37 33° 263° (W) 19:54:26 437.250
M-CUBED/EXP-1 PRIME 28 Jun 19:50:15 19:52:40 19° 63° (ENE) 19:55:05 437.505
UWE-3 28 Jun 19:50:37 19:53:13 16° 64° (ENE) 19:55:53 435.000/436.395/437.385
HO-68 28 Jun 19:53:22 20:00:32 86° 71° (ENE) 20:07:46 435.675
CANX-2 28 Jun 19:57:49 20:02:05 88° 247° (WSW) 20:06:26 2200.000
CUTE-I 28 Jun 19:59:35 20:01:08 11° 272° (W) 20:02:42 437.470
COMPASS 1 28 Jun 19:59:44 20:03:42 42° 72° (ENE) 20:07:43 437.405
STRAND 1 28 Jun 20:06:58 20:12:08 77° 101° (ESE) 20:17:17 437.568
PRISM 28 Jun 20:13:33 20:15:11 12° 91° (E) 20:16:49 437.425
CUTE 1.7 + AOD 2 28 Jun 20:17:54 20:22:08 61° 260° (W) 20:26:24 437.475
SEEDS 28 Jun 20:21:43 20:25:58 77° 258° (WSW) 20:30:16 437.485
CUBEBUG 2 28 Jun 20:37:53 20:42:01 75° 76° (ENE) 20:46:18 437.445
CINEMA 3 28 Jun 20:42:08 20:45:45 28° 264° (W) 20:49:22 145.822/145.860
AUBIESAT-1 28 Jun 20:44:13 20:47:30 82° 74° (ENE) 20:50:51 437.475
DANDE 28 Jun 20:44:46 20:46:37 12° 282° (WNW) 20:48:18 436.750
RS-15 28 Jun 20:45:13 20:57:39 80° 55° (NE) 21:09:57 29.354- 29.394
Cosmos 2499 28 Jun 20:59:59 21:06:40 25° 296° (WNW) 21:13:40 435.465 / 435.565
AAUSAT CUBESAT 2 28 Jun 21:00:52 21:04:56 48° 261° (W) 21:09:02 437.432
ZACube-1 28 Jun 21:03:46 21:07:55 64° 74° (ENE) 21:12:12 437.345
GONETS M04 28 Jun 21:11:25 21:16:14 16° 302° (WNW) 21:21:05
DELFI C3 28 Jun 21:12:00 21:15:44 37° 71° (ENE) 21:19:29 145.870
Oscar 11 28 Jun 21:13:20 21:17:40 90° 104° (ESE) 21:22:04 145.826/435.025
FUNcube-1 28 Jun 21:21:15 21:25:27 86° 258° (WSW) 21:29:46 145.935
M-CUBED/EXP-1 PRIME 28 Jun 21:24:34 21:27:10 21° 259° (W) 21:29:46 437.505
UWE-3 28 Jun 21:25:16 21:29:17 47° 261° (W) 21:33:26 435.000/436.395/437.385
AO-85 28 Jun 21:27:01 21:32:21 59° 118° (ESE) 21:37:31 145.980
COMPASS 1 28 Jun 21:36:43 21:39:27 17° 268° (W) 21:42:14 437.405
HO-68 28 Jun 21:44:40 21:49:05 17° 271° (W) 21:53:33 435.675
PRISM 28 Jun 21:46:50 21:50:51 55° 287° (WNW) 21:54:49 437.425
STRAND 1 28 Jun 21:47:51 21:50:40 15° 301° (WNW) 21:53:29 437.568
ESTCUBE 1 28 Jun 22:10:22 22:13:18 17° 63° (ENE) 22:16:13 437.505/2401.250
AISAT 28 Jun 22:15:10 22:16:57 12° 61° (ENE) 22:18:44 437.250
HUMSAT D 28 Jun 22:15:39 22:19:49 87° 258° (WSW) 22:24:05 437.325/437.525
TIGRISAT 28 Jun 22:32:59 22:37:07 31° 96° (E) 22:41:16 435.000
DX 1 28 Jun 22:33:58 22:36:20 15° 62° (ENE) 22:38:42 434.975-435.025
UNISAT 6 28 Jun 22:38:03 22:42:22 37° 97° (E) 22:46:42 437.425
ZACube-1 28 Jun 22:43:30 22:44:42 11° 272° (W) 22:45:54 437.345
DELFI C3 28 Jun 22:48:02 22:50:44 17° 268° (W) 22:53:27 145.870
SO-50 28 Jun 22:48:44 22:50:52 13° 33° (NNE) 22:52:59 436.795
RS-15 28 Jun 22:58:52 23:08:57 32° 257° (WSW) 23:18:58 29.354- 29.394
CUBEBUG 1 28 Jun 22:59:30 23:03:26 34° 70° (ENE) 23:07:23 437.445
VELOX 1 28 Jun 23:07:54 23:12:00 39° 70° (ENE) 23:16:07 145.980
AO-85 28 Jun 23:08:42 23:13:10 26° 316° (NW) 23:17:31 145.980
QB50P2 28 Jun 23:08:54 23:10:54 13° 91° (E) 23:12:55 145.880/145.840
DUCHIFAT 1 28 Jun 23:11:15 23:12:37 11° 90° (E) 23:13:58 145.980
POLYITAN 1 28 Jun 23:11:26 23:13:32 13° 91° (E) 23:15:40 437.675
ANTELSAT 28 Jun 23:17:37 23:22:18 87° 281° (W) 23:27:01 437.575/2403.000
YUBILEINY 28 Jun 23:20:47 23:29:13 46° 74° (ENE) 23:37:36 435.215
50 SAT 28 Jun 23:23:18 23:26:57 61° 75° (ENE) 23:30:39 437.505
ESTCUBE 1 28 Jun 23:45:15 23:49:41 52° 260° (W) 23:54:08 437.505/2401.250
UKube-1 28 Jun 23:47:22 23:51:39 67° 74° (ENE) 23:55:56 .
AISAT 28 Jun 23:48:27 23:52:50 72° 257° (WSW) 23:57:15 437.250
SPROUT 28 Jun 23:48:43 23:52:45 45° 72° (ENE) 23:56:50 437.525
BUGSAT 1 29 Jun 00:04:46 00:07:50 20° 94° (E) 00:10:54 437.445
DX 1 29 Jun 00:07:47 00:12:03 58° 259° (W) 00:16:21 434.975-435.025
TIGRISAT 29 Jun 00:09:45 00:13:42 28° 292° (WNW) 00:17:42 435.000
JAS-2 29 Jun 00:14:16 00:17:28 15° 88° (E) 00:20:31 435.910
UNISAT 6 29 Jun 00:15:09 00:18:53 24° 293° (WNW) 00:22:37 437.425
Cosmos 2504 29 Jun 00:20:21 00:28:23 36° 70° (ENE) 00:36:07 435.465 / 435.565
NANOSAT C BR1 29 Jun 00:24:00 00:28:15 81° 103° (ESE) 00:32:31 145.865
QB50P1 29 Jun 00:27:08 00:31:25 89° 282° (WNW) 00:35:41 145.935-145.965
SO-50 29 Jun 00:27:39 00:32:19 65° 53° (NE) 00:36:49 436.795
POPSAT HIP 1 29 Jun 00:30:23 00:34:40 83° 282° (WNW) 00:38:56 437.405
Cosmos 2491 29 Jun 00:30:56 00:39:29 60° 91° (E) 00:48:00 435.465 / 435.565
CUBEBUG 1 29 Jun 00:36:25 00:39:48 22° 266° (W) 00:43:11 437.445
QB50P2 29 Jun 00:42:52 00:47:03 56° 287° (WNW) 00:51:14 145.880/145.840
DUCHIFAT 1 29 Jun 00:44:31 00:48:43 64° 286° (WNW) 00:52:54 145.980
VELOX 1 29 Jun 00:45:25 00:48:37 20° 267° (W) 00:51:49 145.980
POLYITAN 1 29 Jun 00:45:29 00:49:41 55° 287° (WNW) 00:53:51 437.675
ANTELSAT 29 Jun 00:57:19 00:58:16 11° 301° (WNW) 00:59:14 437.575/2403.000
TISAT 1 29 Jun 01:07:52 01:12:02 90° 25° (NNE) 01:16:13 437.305
YUBILEINY 29 Jun 01:17:51 01:25:53 41° 274° (W) 01:33:55 435.215
SPROUT 29 Jun 01:26:21 01:28:57 16° 268° (W) 01:31:33 437.525
UKube-1 29 Jun 01:26:55 01:28:08 11° 270° (W) 01:29:22 .
PCSat 29 Jun 01:30:09 01:34:50 30° 109° (ESE) 01:39:31 145.827
BUGSAT 1 29 Jun 01:39:34 01:43:16 33° 290° (WNW) 01:47:00 437.445
SWISSCUBE 29 Jun 01:42:57 01:47:31 46° 71° (ENE) 01:52:07 437.505
Oscar 19 29 Jun 01:45:25 01:50:12 38° 98° (E) 01:54:57 437.125/150
JAS-2 29 Jun 01:57:38 02:03:16 65° 288° (WNW) 02:08:26 435.910
NANOSAT C BR1 29 Jun 02:02:39 02:03:21 10° 299° (WNW) 02:04:02 145.865
Gurwin Techsat 1B 29 Jun 02:05:11 02:09:39 26° 95° (E) 02:14:04 435.225
BEESAT 29 Jun 02:07:59 02:12:44 74° 74° (ENE) 02:17:32 436.000
ITUPSAT 1 29 Jun 02:09:14 02:14:00 74° 74° (ENE) 02:18:50 437.325
SO-50 29 Jun 02:09:39 02:12:12 15° 252° (WSW) 02:14:45 436.795
BEESAT 3 29 Jun 02:13:03 02:16:39 36° 117° (ESE) 02:20:18 437.485
Cosmos 2504 29 Jun 02:13:32 02:22:04 54° 271° (W) 02:30:17 435.465 / 435.565
O/OREOS (USA 219) 29 Jun 02:27:24 02:31:39 44° 107° (ESE) 02:35:55 437.305
Cosmos 2491 29 Jun 02:29:17 02:36:49 31° 292° (WNW) 02:44:23 435.465 / 435.565
MOZHAYETS 4 29 Jun 02:45:23 02:48:45 20° 65° (ENE) 02:52:08
AO-7 29 Jun 02:47:50 02:51:30 13° 87° (E) 02:55:10 29.400- 29.500
BEESAT 2 29 Jun 02:51:21 02:55:12 53° 119° (ESE) 02:59:06 435.950
KKS-1 29 Jun 02:52:06 02:55:43 25° 67° (ENE) 02:59:21 437.445
PCSat 29 Jun 03:12:58 03:18:04 41° 308° (NW) 03:23:12 145.827
SWISSCUBE 29 Jun 03:22:04 03:25:32 20° 267° (W) 03:29:02 437.505
STARS 29 Jun 03:23:07 03:26:46 27° 67° (ENE) 03:30:27 437.465
Oscar 19 29 Jun 03:25:05 03:29:21 27° 295° (WNW) 03:33:35 437.125/150
GONETS M04 29 Jun 03:25:18 03:28:00 11° 53° (NE) 03:30:40
AIST 1 29 Jun 03:43:08 03:47:02 34° 76° (ENE) 03:50:54
Gurwin Techsat 1B 29 Jun 03:44:45 03:49:43 41° 291° (WNW) 03:54:39 435.225
ITAMSAT 1 29 Jun 03:47:40 03:52:56 82° 103° (ESE) 03:58:10 435.822/435.867
BEESAT 29 Jun 03:49:11 03:51:03 12° 271° (W) 03:52:55 436.000
ITUPSAT 1 29 Jun 03:50:30 03:52:22 12° 271° (W) 03:54:14 437.325
BEESAT 3 29 Jun 03:51:18 03:54:27 23° 315° (NW) 03:57:37 437.485
O/OREOS (USA 219) 29 Jun 04:07:55 04:11:16 20° 305° (NW) 04:14:38 437.305
CUBESAT XI-V 29 Jun 04:14:00 04:17:27 21° 65° (ENE) 04:20:54 437.345
AO-85 29 Jun 04:20:31 04:21:48 11° 30° (NNE) 04:23:04 145.980
MOZHAYETS 4 29 Jun 04:21:11 04:25:36 44° 262° (W) 04:30:03
KKS-1 29 Jun 04:28:14 04:32:10 31° 263° (W) 04:36:07 437.445
BEESAT 2 29 Jun 04:30:34 04:33:21 18° 317° (NW) 04:36:08 435.950
AO-7 29 Jun 04:37:15 04:45:40 72° 106° (ESE) 04:54:00 29.400- 29.500
Cosmos 2499 29 Jun 04:55:37 05:03:08 30° 67° (ENE) 05:10:16 435.465 / 435.565
STARS 29 Jun 04:59:17 05:03:03 28° 264° (W) 05:06:50 437.465
AIST 2 29 Jun 05:14:42 05:18:48 85° 301° (WNW) 05:22:58 435.215
GONETS M04 29 Jun 05:18:27 05:27:03 58° 77° (ENE) 05:35:38
AIST 1 29 Jun 05:21:20 05:24:23 19° 273° (W) 05:27:25
ITAMSAT 1 29 Jun 05:28:58 05:31:42 14° 302° (WNW) 05:34:26 435.822/435.867
HORYU 2 29 Jun 05:43:13 05:47:44 77° 102° (ESE) 05:52:14 437.375
STRAND 1 29 Jun 05:46:54 05:49:58 16° 60° (ENE) 05:53:02 437.568
CUBESAT XI-V 29 Jun 05:50:02 05:54:31 44° 261° (W) 05:59:02 437.345
NOAA 18 29 Jun 05:56:59 06:00:43 18° 92° (E) 06:04:27 137.9125
Cubesat XI-IV 29 Jun 05:58:35 06:02:02 17° 91° (E) 06:05:29 437.490
CUSAT 1 29 Jun 05:58:40 06:02:52 16° 85° (E) 06:06:44 437.405
AO-85 29 Jun 05:58:56 06:03:26 54° 52° (NE) 06:07:33 145.980
BRITE-PL 29 Jun 06:15:56 06:19:34 29° 96° (E) 06:23:14 437.365/2234.400
DANDE 29 Jun 06:26:01 06:30:14 15° 80° (E) 06:34:17 436.750
AO-7 29 Jun 06:30:55 06:37:44 29° 306° (NW) 06:44:32 29.400- 29.500
CUTE-I 29 Jun 06:31:43 06:36:37 34° 97° (E) 06:41:28 437.470
PHONESAT 2.4 29 Jun 06:37:10 06:39:35 21° 156° (SSE) 06:42:00 2401.200-2431.200
LilacSat-2 29 Jun 06:38:45 06:42:23 36° 98° (E) 06:45:58 437.200
GOMX 1 29 Jun 06:46:40 06:50:20 28° 96° (E) 06:54:07 467.674
Cosmos 2499 29 Jun 06:48:15 06:56:53 63° 268° (W) 07:05:00 435.465 / 435.565
AIST 2 29 Jun 06:56:02 06:57:58 13° 323° (NW) 06:59:52 435.215
NOAA 15 29 Jun 06:57:57 07:03:14 81° 104° (ESE) 07:08:28 137.62
PRISM 29 Jun 07:04:36 07:05:46 11° 61° (ENE) 07:06:55 437.425
GONETS M04 29 Jun 07:16:02 07:23:20 31° 277° (W) 07:30:40
HORYU 2 29 Jun 07:21:57 07:23:40 12° 300° (WNW) 07:25:23 437.375
HO-68 29 Jun 07:22:32 07:26:28 15° 88° (E) 07:30:22 435.675
STRAND 1 29 Jun 07:23:25 07:28:32 71° 257° (WSW) 07:33:43 437.568
NOAA 18 29 Jun 07:36:19 07:41:48 63° 289° (WNW) 07:47:17 137.9125
CUSAT 1 29 Jun 07:36:34 07:44:22 85° 99° (E) 07:50:53 437.405
Cubesat XI-IV 29 Jun 07:37:12 07:42:33 64° 288° (WNW) 07:47:51 437.490
AO-85 29 Jun 07:40:43 07:43:20 16° 252° (WSW) 07:45:49 145.980
CANX-2 29 Jun 07:43:31 07:46:06 15° 91° (E) 07:48:38 2200.000
DOVE 4 29 Jun 07:43:35 07:47:50 55° 100° (E) 07:52:19 437.250
ISS 29 Jun 07:44:11 07:46:20 16° 132° (SE) 07:48:29 145.825
BRITE-PL 29 Jun 07:54:42 07:57:59 23° 293° (WNW) 08:01:16 437.365/2234.400
CUTE 1.7 + AOD 2 29 Jun 08:02:48 08:06:08 22° 93° (E) 08:09:26 437.475
DANDE 29 Jun 08:03:39 08:12:02 72° 96° (E) 08:19:43 436.750
SEEDS 29 Jun 08:06:06 08:08:52 17° 92° (E) 08:11:37 437.485
CUTE-I 29 Jun 08:11:50 08:16:35 32° 294° (WNW) 08:21:18 437.470
PHONESAT 2.4 29 Jun 08:12:52 08:15:52 53° 172° (S) 08:18:52 2401.200-2431.200
LilacSat-2 29 Jun 08:13:49 08:16:24 17° 294° (WNW) 08:18:59 437.200
GOMX 1 29 Jun 08:24:55 08:28:22 25° 291° (WNW) 08:31:54 467.674
CUBEBUG 2 29 Jun 08:28:46 08:31:42 16° 91° (E) 08:34:39 437.445
CINEMA 3 29 Jun 08:34:36 08:39:07 58° 100° (E) 08:43:48 145.822/145.860
PRISM 29 Jun 08:36:20 08:40:29 73° 258° (WSW) 08:44:39 437.425
NOAA 15 29 Jun 08:39:32 08:42:19 15° 301° (WNW) 08:45:06 137.62
AAUSAT CUBESAT 2 29 Jun 08:42:55 08:46:18 24° 94° (E) 08:49:40 437.432
Cosmos 2499 29 Jun 08:45:44 08:48:02 11° 289° (WNW) 08:50:18 435.465 / 435.565
ZACube-1 29 Jun 08:52:58 08:55:06 13° 90° (E) 08:57:14 437.345
Oscar 11 29 Jun 09:01:09 09:03:50 16° 91° (E) 09:06:30 145.826/435.025
M-CUBED/EXP-1 PRIME 29 Jun 09:02:02 09:04:36 16° 100° (E) 09:07:17 437.505
HO-68 29 Jun 09:07:52 09:15:08 86° 106° (ESE) 09:22:21 435.675
FUNcube-1 29 Jun 09:09:18 09:12:28 18° 92° (E) 09:15:40 145.935
UWE-3 29 Jun 09:13:52 09:18:01 33° 96° (E) 09:22:12 435.000/436.395/437.385
COMPASS 1 29 Jun 09:17:06 09:21:19 74° 102° (ESE) 09:25:28 437.405
CANX-2 29 Jun 09:18:05 09:22:13 47° 288° (WNW) 09:26:18 2200.000
ISS 29 Jun 09:19:14 09:22:28 62° 329° (NNW) 09:25:43 145.825
CUSAT 1 29 Jun 09:21:50 09:26:53 19° 293° (WNW) 09:31:25 437.405
DOVE 4 29 Jun 09:22:42 09:25:10 15° 296° (WNW) 09:27:44 437.250
TIGRISAT 29 Jun 09:32:34 09:36:13 28° 68° (ENE) 09:39:57 435.000
UNISAT 6 29 Jun 09:37:41 09:41:32 33° 69° (ENE) 09:45:30 437.425
CUTE 1.7 + AOD 2 29 Jun 09:38:10 09:42:02 33° 290° (WNW) 09:45:51 437.475
SEEDS 29 Jun 09:40:45 09:44:46 42° 288° (WNW) 09:48:44 437.485
DANDE 29 Jun 09:48:28 09:55:21 28° 292° (WNW) 10:01:44 436.750
PHONESAT 2.4 29 Jun 09:49:20 09:52:20 50° 189° (S) 09:55:19 2401.200-2431.200
AUBIESAT-1 29 Jun 09:55:24 09:59:18 54° 106° (ESE) 10:03:27 437.475
HUMSAT D 29 Jun 09:59:44 10:02:14 15° 91° (E) 10:04:43 437.325/437.525
QB50P2 29 Jun 10:03:15 10:04:40 11° 61° (ENE) 10:06:04 145.880/145.840
CUBEBUG 2 29 Jun 10:04:06 10:08:35 53° 287° (WNW) 10:13:10 437.445
POLYITAN 1 29 Jun 10:05:46 10:07:16 12° 61° (ENE) 10:08:47 437.675
CINEMA 3 29 Jun 10:13:05 10:15:50 16° 296° (WNW) 10:18:40 145.822/145.860
PCSat 29 Jun 10:16:48 10:21:36 31° 49° (NE) 10:26:22 145.827
ANTELSAT 29 Jun 10:16:56 10:21:14 87° 70° (ENE) 10:25:40 437.575/2403.000
AAUSAT CUBESAT 2 29 Jun 10:18:10 10:21:46 29° 291° (WNW) 10:25:22 437.432
DELFI C3 29 Jun 10:23:26 10:27:24 57° 100° (E) 10:31:17 145.870
ZACube-1 29 Jun 10:27:15 10:31:46 64° 286° (WNW) 10:36:19 437.345
JAS-2 29 Jun 10:28:42 10:31:26 12° 54° (NE) 10:34:06 435.910
BEESAT 3 29 Jun 10:29:36 10:33:06 29° 48° (NE) 10:36:33 437.485
M-CUBED/EXP-1 PRIME 29 Jun 10:35:33 10:39:14 42° 293° (WNW) 10:43:12 437.505
Oscar 11 29 Jun 10:36:01 10:40:13 47° 288° (WNW) 10:44:23 145.826/435.025
Cosmos 2491 29 Jun 10:40:47 10:48:16 31° 68° (ENE) 10:55:41 435.465 / 435.565
FUNcube-1 29 Jun 10:44:35 10:48:55 45° 288° (WNW) 10:53:16 145.935
UWE-3 29 Jun 10:50:30 10:54:20 27° 292° (WNW) 10:58:12 435.000/436.395/437.385
COMPASS 1 29 Jun 10:55:12 10:56:15 11° 299° (WNW) 10:57:18 437.405
BUGSAT 1 29 Jun 10:55:56 10:58:21 16° 65° (ENE) 11:00:48 437.445
ISS 29 Jun 10:56:56 10:59:23 19° 348° (NNW) 11:01:51 145.825
HO-68 29 Jun 10:57:00 11:01:58 21° 305° (NW) 11:06:57 435.675
O/OREOS (USA 219) 29 Jun 10:59:08 11:00:55 12° 49° (NE) 11:02:41 437.305
BEESAT 2 29 Jun 11:08:48 11:12:34 39° 51° (NE) 11:16:20 435.950
TIGRISAT 29 Jun 11:09:12 11:12:51 27° 265° (W) 11:16:36 435.000
RS-15 29 Jun 11:09:17 11:19:52 48° 109° (ESE) 11:30:59 29.354- 29.394
UNISAT 6 29 Jun 11:14:55 11:18:20 23° 266° (W) 11:21:49 437.425
NANOSAT C BR1 29 Jun 11:16:28 11:20:35 63° 74° (ENE) 11:24:44 145.865
QB50P1 29 Jun 11:19:52 11:24:02 73° 75° (ENE) 11:28:14 145.935-145.965
POPSAT HIP 1 29 Jun 11:23:10 11:27:20 78° 74° (ENE) 11:31:33 437.405
PHONESAT 2.4 29 Jun 11:26:17 11:28:35 19° 205° (SSW) 11:30:52 2401.200-2431.200
AUBIESAT-1 29 Jun 11:31:13 11:33:27 15° 300° (WNW) 11:35:45 437.475
HUMSAT D 29 Jun 11:33:57 11:38:08 50° 287° (WNW) 11:42:17 437.325/437.525
QB50P2 29 Jun 11:35:42 11:39:52 71° 258° (WSW) 11:44:06 145.880/145.840
DUCHIFAT 1 29 Jun 11:36:37 11:40:46 82° 256° (WSW) 11:44:59 145.980
UKube-1 29 Jun 11:36:52 11:37:27 10° 89° (E) 11:38:02 .
ESTCUBE 1 29 Jun 11:37:17 11:41:16 30° 96° (E) 11:45:12 437.505/2401.250
POLYITAN 1 29 Jun 11:38:21 11:42:30 69° 258° (WSW) 11:46:43 437.675
AISAT 29 Jun 11:38:42 11:41:57 20° 94° (E) 11:45:11 437.250
DX 1 29 Jun 11:55:49 11:59:12 22° 95° (E) 12:02:35 434.975-435.025
AIST 2 29 Jun 11:58:48 12:00:23 12° 36° (NE) 12:01:57 435.215
PCSat 29 Jun 12:00:01 12:05:08 43° 247° (WSW) 12:10:12 145.827
DELFI C3 29 Jun 12:00:03 12:01:46 12° 297° (WNW) 12:03:27 145.870
BEESAT 3 29 Jun 12:07:20 12:10:43 27° 245° (WSW) 12:14:04 437.485
JAS-2 29 Jun 12:07:52 12:15:20 61° 71° (ENE) 12:22:07 435.910
YUBILEINY 29 Jun 12:22:23 12:30:39 51° 89° (E) 12:39:00 435.215
CUBEBUG 1 29 Jun 12:23:02 12:27:19 63° 101° (E) 12:31:37 437.445
50 SAT 29 Jun 12:25:12 12:28:54 72° 102° (ESE) 12:32:33 437.505
BUGSAT 1 29 Jun 12:29:34 12:33:24 43° 261° (W) 12:37:15 437.445
VELOX 1 29 Jun 12:33:14 12:37:39 74° 102° (ESE) 12:42:02 145.980
ISS 29 Jun 12:34:23 12:36:43 18° 8° (N) 12:39:02 145.825
O/OREOS (USA 219) 29 Jun 12:36:28 12:40:58 85° 248° (WSW) 12:45:27 437.305
Cosmos 2491 29 Jun 12:37:07 12:45:39 61° 269° (W) 12:54:09 435.465 / 435.565
BEESAT 2 29 Jun 12:47:15 12:50:09 19° 248° (WSW) 12:53:02 435.950
TISAT 1 29 Jun 12:52:45 12:54:46 13° 91° (E) 12:56:47 437.305
NANOSAT C BR1 29 Jun 12:55:29 12:56:43 11° 270° (W) 12:57:58 145.865
Cosmos 2504 29 Jun 13:00:03 13:06:37 28° 81° (E) 13:13:31 435.465 / 435.565
Oscar 19 29 Jun 13:02:44 13:07:47 60° 72° (ENE) 13:12:51 437.125/150
SPROUT 29 Jun 13:09:30 13:13:48 83° 106° (ESE) 13:18:05 437.525
UKube-1 29 Jun 13:09:40 13:13:58 72° 286° (WNW) 13:18:15 .
ESTCUBE 1 29 Jun 13:14:12 13:17:58 27° 293° (WNW) 13:21:43 437.505/2401.250
AISAT 29 Jun 13:14:29 13:18:33 38° 290° (WNW) 13:22:37 437.250
RS-15 29 Jun 13:20:49 13:32:06 58° 314° (NW) 13:44:04 29.354- 29.394
Gurwin Techsat 1B 29 Jun 13:26:42 13:31:43 45° 70° (ENE) 13:36:46 435.225
ITAMSAT 1 29 Jun 13:29:01 13:32:31 19° 61° (ENE) 13:36:03 435.822/435.867
DX 1 29 Jun 13:31:33 13:35:28 34° 291° (WNW) 13:39:22 434.975-435.025
AIST 2 29 Jun 13:35:25 13:39:36 75° 57° (ENE) 13:43:45 435.215
SWISSCUBE 29 Jun 13:45:09 13:46:17 11° 88° (E) 13:47:25 437.505
AO-7 29 Jun 13:46:48 13:53:07 25° 52° (NE) 13:59:28 29.400- 29.500
JAS-2 29 Jun 13:54:19 14:00:36 28° 266° (W) 14:06:29 435.910
CUBEBUG 1 29 Jun 14:01:04 14:03:06 13° 298° (WNW) 14:05:07 437.445
